[[{"header":{"parameterUnit":"m.s-1","parameterCategory":1,"la1":30.2991,"la2":30.254,"lo1":-89.0895,"lo2":-89.0444,"dy":0.0017,"dx":0.0017,"nx":28,"ny":28,"refTime":"2023-08-09T03:00:00:Z","depth":0,"parameterNumber":2,"parameterNumberName":"U-component_of_WINDS"},"data":[0,0,0,0,0,0,0,0,0,0,0,0,0,0,0,0,0,0,0,0,0,0,0,0,0,0,0,0,0,0,0,0,0,0,0,0,0,0,0,0,0,0,0,0,0,0,0,0,0,0,0,0,0,0,0,0,0,0,4.4123,4.4124,0,4.4164,4.4164,4.4165,4.4098,4.4096,4.4093,4.4091,4.4132,4.4135,4.4138,0,0,0,0,0,0,0,0,0,0,0,0,0,4.3986,4.3989,4.4123,4.4124,4.4124,4.4164,4.4164,4.4165,4.4098,4.4095,4.4093,4.409,4.4131,4.4135,4.4139,0,0,0,0,0,0,0,0,0,0,0,0,0,4.4038,4.399,4.4123,4.4096,4.4094,4.4163,4.4164,4.4165,4.4099,4.4095,4.4092,4.4089,4.413,4.4134,4.4139,4.4237,0,0,4.4154,4.4156,0,0,0,0,0,0,0,0,4.4035,4.4043,4.41,4.4098,4.4096,4.4122,4.4131,4.4189,4.41,4.4097,4.4091,4.4087,4.4131,4.4136,4.4151,4.4239,4.4241,4.4154,4.4157,4.4159,4.4161,0,0,0,0,0,0,0,4.4032,4.4041,4.4139,4.41,4.4098,4.4081,4.4084,4.4141,4.4133,4.4097,4.4092,4.4098,4.413,4.4146,4.4151,4.4241,4.4154,4.4158,4.4161,4.4163,4.4406,4.441,0,0,0,0,0,0,4.4032,4.4039,4.4138,4.414,4.4057,4.4086,4.409,4.4117,4.4132,4.4131,4.4101,4.4095,4.414,4.4146,4.4153,4.4264,4.4159,4.4164,4.4166,4.4403,4.4407,4.4411,0,0,0,0,0,0,4.4029,4.4041,4.4136,4.4088,4.4099,4.4092,4.4123,4.412,4.4136,4.4135,4.4133,4.4119,4.4137,4.4146,4.4215,4.4265,4.4166,4.417,4.4398,4.4404,4.4409,4.449,0,0,0,0,0,0,4.4025,4.4041,4.4079,4.409,4.4102,4.42,4.4126,4.4123,4.4145,4.4137,4.4152,4.4151,4.4135,4.4208,4.422,4.4269,4.4174,4.4394,4.4401,4.4407,4.4483,4.4498,4.451,0,0,0,0,0,4.4021,4.4101,4.4081,4.4093,4.4149,4.4203,4.4209,4.419,4.4149,4.4186,4.4185,4.4151,4.4258,4.4216,4.4229,4.428,4.4391,4.4399,4.4407,4.4477,4.4495,4.451,0,0,0,0,0,0,4.4097,4.4102,4.408,4.4167,4.4184,4.4191,4.4238,4.421,4.424,4.4232,4.4206,4.421,4.4284,4.429,4.4243,4.4373,4.4317,4.4328,4.4366,4.4383,4.4397,4.4392,4.4178,0,0,0,0,0,4.4124,4.4168,4.417,4.4245,4.4256,4.4245,4.4268,4.4251,4.4269,4.4276,4.428,4.4298,4.4335,4.436,4.4395,4.4484,4.4484,4.4526,4.4539,4.4551,4.4559,4.4602,4.462,4.4437,4.4437,4.4437,0,0,4.418,4.4188,4.4217,4.4261,4.4273,4.4316,4.4252,4.4303,4.4334,4.4284,4.4348,4.4352,4.437,4.4448,4.4483,4.4455,4.461,4.4561,4.457,4.4572,4.4612,4.463,4.4645,4.4443,4.4442,4.4441,0,0,4.4303,4.4316,4.4378,4.4391,4.4409,4.4401,4.4416,4.4427,4.4426,4.4491,4.4452,4.449,4.4556,4.4569,4.4584,4.4709,4.4677,4.4722,4.4791,4.4834,4.4848,4.4861,4.4901,4.4916,4.4731,4.4731,4.4731,0,4.4371,4.4435,4.4414,4.4465,4.4483,4.4439,4.45,4.4514,4.4543,4.4556,4.4525,4.4603,4.4613,4.4692,4.4722,4.4738,4.4751,4.4718,4.4848,4.486,4.4872,4.491,4.4925,4.4736,4.4735,4.4735,4.4734,0,4.4514,4.456,4.4608,4.4635,4.4659,4.4716,4.4701,4.4728,4.4709,4.4704,4.4768,4.4778,4.4811,4.4829,4.4812,4.4905,4.4886,4.4852,4.4795,4.4894,4.4929,4.4944,4.4743,4.4741,4.474,4.4739,0,0,4.4687,4.4699,4.4717,4.4726,4.4742,4.4776,4.483,4.4862,4.4883,4.4905,4.4946,4.5002,4.4969,4.4987,4.497,4.5008,4.5101,4.4969,4.4968,4.4989,4.5199,4.5221,4.5239,4.5081,4.5084,4.5086,4.5196,0,4.4806,4.4896,4.4877,4.4965,4.5004,4.4962,4.5008,4.5021,4.5018,4.505,4.5046,4.5084,4.504,4.505,4.5086,4.5082,4.5142,4.5075,4.5117,4.5119,4.511,4.5258,4.5283,4.5386,4.521,4.5212,4.5214,0,4.4957,4.4981,4.5073,4.5078,4.5094,4.5136,4.5161,4.5193,4.5207,4.5202,4.522,4.5195,4.5245,4.519,4.5257,4.5211,4.5228,4.5229,4.5232,4.5232,4.517,4.5258,4.5419,4.5433,4.5236,4.5235,4.5233,0,4.5067,4.5124,4.5185,4.5195,4.5205,4.5234,4.5239,4.5249,4.5268,4.5291,4.5303,4.5332,4.5347,4.5369,4.5352,4.5314,4.5421,4.5365,4.5415,4.5415,4.5437,4.5435,4.5598,4.5454,4.5454,4.5454,4.5454,0,4.52,4.5257,4.5234,4.5271,4.5332,4.5309,4.537,4.537,4.538,4.5414,4.5381,4.5415,4.5392,4.5423,4.5411,4.5466,4.5474,4.5469,4.5464,4.547,4.547,4.5478,4.5468,4.5458,4.5457,4.5456,4.5456,0,4.5333,4.5321,4.5383,4.5386,4.5388,4.5432,4.5434,4.5467,4.5461,4.5505,4.5514,4.5504,4.5539,4.5525,4.5563,4.5553,4.5623,4.5611,4.5617,4.5613,4.5662,4.5656,4.5833,4.5853,4.57,4.5702,4.5703,0,4.5417,4.5459,4.5465,4.5485,4.5492,4.5527,4.5545,4.5523,4.5544,4.5561,4.5592,4.5623,4.5647,4.5704,4.57,4.5727,4.5713,4.5773,4.5717,4.572,4.5708,4.5704,4.5707,4.5783,4.5785,4.5786,4.5788,0,4.5564,4.5555,4.5583,4.5608,4.563,4.565,4.5666,4.5685,4.5663,4.5688,4.5722,4.574,4.5777,4.5808,4.5832,4.5836,4.5807,4.5806,4.5818,4.5822,4.5822,4.5818,4.5644,4.5801,4.58,4.5799,4.5798,4.5797,4.5672,4.5705,4.5714,4.5745,4.5754,4.5769,4.5799,4.5795,4.5823,4.585,4.5837,4.5875,4.5885,4.5914,4.5922,4.5951,4.5927,4.5946,4.595,4.5954,4.5958,4.5821,4.5956,4.5956,4.5955,4.5955,4.5955,0,4.5814,4.5817,4.5846,4.5867,4.5891,4.5863,4.5878,4.5899,4.5934,4.5945,4.5968,4.6006,4.6035,4.6032,4.6058,4.6082,4.6069,4.6089,4.6085,4.6085,4.5981,4.5965,4.6098,4.6098,4.6098,4.6098,4.6098,4.6098,4.5891,4.5944,4.5935,4.5992,4.5995,4.6031,4.6042,4.6055,4.6063,4.6106,4.6129,4.6127,4.6131,4.6157,4.6181,4.618,4.6189,4.6213,4.6206,4.6108,4.6093,4.608,4.6065,4.6216,4.6217,4.6308,4.6308,4.6309]},{"header":{"parameterUnit":"m.s-1","parameterCategory":1,"la1":30.2991,"la2":30.254,"lo1":-89.0895,"lo2":-89.0444,"dy":0.0017,"dx":0.0017,"nx":28,"ny":28,"refTime":"2023-08-09T03:00:00:Z","depth":0,"parameterNumber":3,"parameterNumberName":"V-component_of_WINDS"},"data":[0,0,0,0,0,0,0,0,0,0,0,0,0,0,0,0,0,0,0,0,0,0,0,0,0,0,0,0,0,0,0,0,0,0,0,0,0,0,0,0,0,0,0,0,0,0,0,0,0,0,0,0,0,0,0,0,0,0,4.9433,4.9435,0,4.9554,4.9556,4.9557,4.9542,4.954,4.9539,4.9537,4.9656,4.9661,4.9666,0,0,0,0,0,0,0,0,0,0,0,0,0,4.9185,4.9189,4.9433,4.9435,4.9436,4.9554,4.9556,4.9557,4.9543,4.954,4.9538,4.9536,4.9654,4.966,4.9666,0,0,0,0,0,0,0,0,0,0,0,0,0,4.9298,4.9191,4.9433,4.9443,4.9446,4.9554,4.9556,4.9558,4.9543,4.954,4.9537,4.9535,4.9652,4.966,4.9667,4.9771,0,0,4.969,4.9693,0,0,0,0,0,0,0,0,4.9291,4.9307,4.944,4.9443,4.9445,4.953,4.9512,4.9629,4.9544,4.9506,4.9537,4.9533,4.9616,4.9627,4.9655,4.9777,4.9782,4.9691,4.9695,4.9698,4.97,0,0,0,0,0,0,0,4.9283,4.9301,4.9481,4.9442,4.9445,4.944,4.9453,4.9534,4.9576,4.9509,4.9508,4.9523,4.9617,4.9648,4.9658,4.9784,4.969,4.9697,4.9702,4.9705,4.9994,4.9997,0,0,0,0,0,0,4.9274,4.9295,4.9477,4.9485,4.936,4.9447,4.9461,4.9506,4.9575,4.9583,4.9525,4.9522,4.9637,4.9649,4.9662,4.9787,4.9698,4.9705,4.971,4.9991,4.9995,4.9998,0,0,0,0,0,0,4.9268,4.929,4.9472,4.939,4.9413,4.9454,4.9505,4.951,4.9541,4.9587,4.9594,4.955,4.9635,4.9652,4.9744,4.9791,4.9709,4.9715,4.9987,4.9992,4.9996,5.0039,0,0,0,0,0,0,4.9261,4.9288,4.933,4.9391,4.9417,4.9554,4.9508,4.9514,4.9555,4.9551,4.9612,4.9619,4.9634,4.9733,4.9751,4.98,4.9721,4.9983,4.9989,4.9995,5.0033,5.0044,5.0054,0,0,0,0,0,4.9252,4.9337,4.9332,4.9354,4.947,4.9557,4.9572,4.9588,4.9559,4.9599,4.9629,4.9618,4.9783,4.9743,4.9763,4.9815,4.998,4.9987,4.9994,5.0028,5.0042,5.0053,0,0,0,0,0,0,4.9279,4.9345,4.9341,4.9447,4.9497,4.9554,4.9607,4.9602,4.966,4.9654,4.9671,4.9684,4.9777,4.9805,4.9759,4.9918,4.9877,4.9889,4.9896,4.9909,4.9919,4.991,4.9728,0,0,0,0,0,4.9298,4.9364,4.9417,4.9506,4.9531,4.9565,4.9603,4.9611,4.9663,4.9683,4.9719,4.9768,4.983,4.9872,4.9932,5.0037,5.0049,5.0082,5.0093,5.0101,5.011,5.0165,5.018,5.0022,5.0022,5.0021,0,0,4.9336,4.938,4.9421,4.9513,4.9552,4.9618,4.9582,4.9655,4.9703,4.9694,4.9783,4.9811,4.9866,4.9965,5.001,4.9991,5.0157,5.011,5.0116,5.0121,5.0174,5.0189,5.0203,5.0027,5.0026,5.0025,0,0,4.944,4.9481,4.9559,4.9599,4.9659,4.968,4.9698,4.9757,4.9775,4.9865,4.9858,4.9916,5.0024,5.0063,5.0097,5.0214,5.0205,5.0233,5.0286,5.034,5.0352,5.0363,5.0403,5.0417,5.0242,5.0242,5.0242,0,4.948,4.9582,4.9599,4.9672,4.9711,4.9706,4.9783,4.982,4.9896,4.9923,4.9901,5.0035,5.0072,5.0179,5.0207,5.0235,5.0255,5.0226,5.0349,5.036,5.0371,5.0409,5.0424,5.0245,5.0245,5.0245,5.0244,0,4.9626,4.9697,4.9752,4.9826,4.9872,4.9946,4.9973,5.0016,5.002,5.0043,5.0133,5.0177,5.0246,5.0272,5.0276,5.0378,5.0364,5.0346,5.0305,5.0389,5.0424,5.0439,5.0249,5.0248,5.0248,5.0247,0,0,4.9751,4.9833,4.9853,4.9885,4.995,5.0004,5.0077,5.0145,5.0181,5.0233,5.0293,5.0385,5.0367,5.0406,5.0414,5.0461,5.0548,5.0437,5.0438,5.0454,5.0661,5.0673,5.069,5.0543,5.0546,5.0548,5.0655,0,4.986,4.9991,5.0008,5.0123,5.0187,5.0182,5.0245,5.029,5.0314,5.0369,5.0394,5.0458,5.0431,5.0454,5.05,5.0528,5.0589,5.052,5.0597,5.0599,5.0582,5.0709,5.0723,5.0822,5.067,5.0672,5.0674,0,5.0005,5.0061,5.0183,5.0238,5.0265,5.0322,5.0384,5.0438,5.0489,5.0502,5.0544,5.0546,5.0619,5.0576,5.0676,5.0629,5.0661,5.0679,5.0683,5.069,5.0641,5.0717,5.0855,5.0869,5.0696,5.0694,5.0693,0,5.0081,5.0188,5.0274,5.0302,5.0368,5.0408,5.0437,5.0485,5.0524,5.0577,5.0602,5.0664,5.0697,5.0743,5.0761,5.0728,5.0859,5.0818,5.087,5.0869,5.0897,5.0894,5.1039,5.092,5.092,5.0919,5.0919,0,5.02,5.0274,5.0309,5.0362,5.0444,5.0461,5.0542,5.0569,5.0611,5.0667,5.0667,5.0719,5.074,5.0795,5.0809,5.0888,5.0903,5.0914,5.0917,5.0914,5.0912,5.0934,5.0927,5.0923,5.0922,5.0922,5.0921,0,5.0299,5.0325,5.0419,5.0473,5.0489,5.0546,5.0592,5.0642,5.0664,5.0735,5.0753,5.0787,5.0852,5.0874,5.0953,5.0962,5.1053,5.1051,5.1036,5.1037,5.1087,5.1081,5.125,5.1272,5.1139,5.114,5.1141,0,5.0373,5.043,5.049,5.0528,5.0559,5.0621,5.066,5.0679,5.072,5.078,5.0822,5.0887,5.094,5.1043,5.1074,5.1133,5.1131,5.1186,5.114,5.1134,5.1129,5.1125,5.113,5.1194,5.1195,5.1196,5.1197,0,5.05,5.051,5.0568,5.063,5.0677,5.0727,5.0774,5.0805,5.083,5.0876,5.0943,5.0984,5.1064,5.1127,5.1187,5.1215,5.121,5.1212,5.1226,5.1223,5.1212,5.1217,5.1058,5.1207,5.1206,5.1206,5.1205,5.1205,5.0587,5.0637,5.0687,5.0751,5.0788,5.0833,5.0882,5.091,5.0966,5.1033,5.104,5.1112,5.1158,5.1239,5.1269,5.1324,5.1308,5.133,5.1336,5.134,5.1343,5.1204,5.1335,5.1335,5.1335,5.1334,5.1334,0,5.0713,5.0744,5.0803,5.087,5.0919,5.0912,5.0963,5.1005,5.1068,5.1113,5.1164,5.124,5.1301,5.1336,5.1396,5.1433,5.1432,5.1448,5.1444,5.145,5.1355,5.1335,5.1448,5.1448,5.1447,5.1447,5.1447,5.1447,5.0784,5.0867,5.0882,5.0983,5.1013,5.1084,5.1114,5.1154,5.1189,5.1274,5.1325,5.1348,5.1388,5.1451,5.1505,5.1514,5.1535,5.1553,5.156,5.1469,5.1458,5.1446,5.1428,5.1558,5.1558,5.1651,5.1651,5.1652]}]]